Location: Peterborough
(44.3091°N, 78.3197°W)
Time: 23:39:18
(UTC-04:00)

SR - Pass Details

Date: 31 March 2023
Orbit: 581 x 867 km, 66.7° (Epoch: 02 June)

Event Time Altitude Azimuth Distance (km) Brightness Sun altitude
Rises 04:04:12 0° 271° (W) 2,906 - -28.9°
Maximum altitude 04:09:31 11° 324° (NW) 1,873 - -28.2°
Exits shadow 04:10:13 11° 334° (NNW) 1,890 ? -28.1°
Drops below altitude 10° 04:10:44 10° 341° (NNW) 1,929 ? -28.0°
Sets 04:14:43 0° 18° (NNE) 2,812 ? -27.4°
